Hourly Data Report for September 26, 2004

TORONTO CITY
ONTARIO

43°40'00.000" N
79°24'00.000" W
112.50 m
6158355
71508
XTO

Download Data

Hourly Data (September 2004)
Hourly Data Report for September 26, 2004
TIME
LST
Temp Definition
°C
Dew Point Definition
°C
Rel Hum Definition
%
Precip. Amount Definition
mm

Wind Dir Definition
10's deg

Wind Spd Definition
km/h
Visibility Definition
km
Stn Press Definition
kPa
Hmdx Definition


Wind Chill Definition


Weather Definition


00:00 15.5 12.0 80   LegendMM LegendMM LegendMM 100.63     LegendNANA
01:00 15.0 12.1 83   LegendMM LegendMM LegendMM 100.65     LegendNANA
02:00 14.5 12.0 85   LegendMM LegendMM LegendMM 100.64     LegendNANA
03:00 13.6 11.7 88   LegendMM LegendMM LegendMM 100.66     LegendNANA
04:00 13.6 11.8 89   LegendMM LegendMM LegendMM 100.65     LegendNANA
05:00 12.6 11.4 92   LegendMM LegendMM LegendMM 100.69     LegendNANA
06:00 12.0 10.9 93   LegendMM LegendMM LegendMM 100.76     LegendNANA
07:00 12.4 11.3 93   LegendMM LegendMM LegendMM 100.79     LegendNANA
08:00 14.9 12.8 87   LegendMM LegendMM LegendMM 100.81     LegendNANA
09:00 17.1 13.6 80   LegendMM LegendMM LegendMM 100.84     LegendNANA
10:00 19.8 14.6 72   LegendMM LegendMM LegendMM 100.84     LegendNANA
11:00 21.1 14.4 66   LegendMM LegendMM LegendMM 100.83 25   LegendNANA
12:00 21.8 14.0 61   LegendMM LegendMM LegendMM 100.79 25   LegendNANA
13:00 21.0 14.4 66   LegendMM LegendMM LegendMM 100.73 25   LegendNANA
14:00 21.4 14.1 63   LegendMM LegendMM LegendMM 100.69 25   LegendNANA
15:00 21.4 13.9 62   LegendMM LegendMM LegendMM 100.64 25   LegendNANA
16:00 20.8 13.4 63   LegendMM LegendMM LegendMM 100.60     LegendNANA
17:00 20.6 12.7 61   LegendMM LegendMM LegendMM 100.58     LegendNANA
18:00 19.2 10.1 56   LegendMM LegendMM LegendMM 100.58     LegendNANA
19:00 17.9 9.6 58   LegendMM LegendMM LegendMM 100.57     LegendNANA
20:00 18.4 14.5 78   LegendMM LegendMM LegendMM 100.61     LegendNANA
21:00 18.7 15.7 83   LegendMM LegendMM LegendMM 100.62     LegendNANA
22:00 17.6 14.0 79   LegendMM LegendMM LegendMM 100.61     LegendNANA
23:00 16.0 13.5 85   LegendMM LegendMM LegendMM 100.61     LegendNANA

Notes on Data Quality.

Legend

  • E = Estimated
  • M = Missing
  • NA = Not Available*
  • [empty] = Indicates an unobserved value
Date modified: